Time,TemperatureF,DewpointF,PressureIn,WindDirection,WindDirectionDegrees,WindSpeedMPH,WindSpeedGustMPH,Humidity,HourlyPrecipIn,Conditions,Clouds,dailyrainin,SoftwareType,DateUTC
2013-01-03 00:05:00,65.9,63.8,30.11,WSW,254,0.0,0.0,93,0.00,,,0.00,Wunderground v.1.15,2013-01-03 05:05:00,
2013-01-03 00:15:00,65.7,63.6,30.11,WSW,254,0.0,0.0,93,0.00,,,0.00,Wunderground v.1.15,2013-01-03 05:15:00,
2013-01-03 00:20:00,65.6,63.5,30.11,WSW,253,0.0,0.0,93,0.00,,,0.00,Wunderground v.1.15,2013-01-03 05:20:00,
2013-01-03 00:25:00,65.4,63.3,30.11,WSW,253,0.0,0.0,93,0.00,,,0.00,Wunderground v.1.15,2013-01-03 05:25:00,
2013-01-03 00:30:00,65.2,63.1,30.11,WSW,254,0.0,0.0,93,0.00,,,0.00,Wunderground v.1.15,2013-01-03 05:30:00,
2013-01-03 00:35:00,65.1,63.0,30.11,WSW,254,0.0,0.0,93,0.00,,,0.00,Wunderground v.1.15,2013-01-03 05:35:00,
2013-01-03 00:40:00,65.1,63.0,30.10,WSW,254,0.0,0.0,93,0.00,,,0.00,Wunderground v.1.15,2013-01-03 05:40:00,
2013-01-03 00:50:00,64.6,62.5,30.10,WSW,254,0.0,0.0,93,0.00,,,0.00,Wunderground v.1.15,2013-01-03 05:50:00,
2013-01-03 01:00:00,64.3,62.5,30.10,WSW,254,0.0,0.0,94,0.00,,,0.00,Wunderground v.1.15,2013-01-03 06:00:00,
2013-01-03 01:05:00,64.2,62.4,30.10,WSW,253,0.0,0.0,94,0.00,,,0.00,Wunderground v.1.15,2013-01-03 06:05:00,
2013-01-03 01:15:00,63.8,62.0,30.10,WSW,253,0.0,0.0,94,0.00,,,0.00,Wunderground v.1.15,2013-01-03 06:15:00,
2013-01-03 01:20:00,63.9,62.1,30.10,WSW,253,0.0,0.0,94,0.00,,,0.00,Wunderground v.1.15,2013-01-03 06:20:00,
2013-01-03 01:30:00,63.8,62.0,30.10,WSW,254,0.0,0.0,94,0.00,,,0.00,Wunderground v.1.15,2013-01-03 06:30:00,
2013-01-03 01:40:00,64.1,62.6,30.10,WSW,253,0.0,0.0,95,0.00,,,0.00,Wunderground v.1.15,2013-01-03 06:40:00,
2013-01-03 01:45:00,64.2,62.7,30.10,WSW,253,0.0,0.0,95,0.00,,,0.00,Wunderground v.1.15,2013-01-03 06:45:00,
2013-01-03 01:55:00,64.5,63.0,30.10,WSW,253,0.0,0.0,95,0.00,,,0.00,Wunderground v.1.15,2013-01-03 06:55:00,
2013-01-03 02:00:00,64.5,63.0,30.10,WSW,254,0.0,0.0,95,0.00,,,0.00,Wunderground v.1.15,2013-01-03 07:00:00,
2013-01-03 02:10:00,64.4,62.9,30.10,WSW,254,0.0,0.0,95,0.00,,,0.00,Wunderground v.1.15,2013-01-03 07:10:00,
2013-01-03 02:15:00,64.5,63.0,30.10,WSW,253,0.0,0.0,95,0.00,,,0.00,Wunderground v.1.15,2013-01-03 07:15:00,
2013-01-03 02:20:00,64.5,63.0,30.10,WSW,253,0.0,0.0,95,0.00,,,0.00,Wunderground v.1.15,2013-01-03 07:20:00,
2013-01-03 02:30:00,64.5,63.0,30.10,WSW,254,0.0,0.0,95,0.00,,,0.00,Wunderground v.1.15,2013-01-03 07:30:00,
2013-01-03 02:40:00,64.5,63.0,30.10,WSW,254,0.0,0.0,95,0.00,,,0.00,Wunderground v.1.15,2013-01-03 07:40:00,
2013-01-03 02:50:00,64.5,63.0,30.10,WSW,254,0.0,0.0,95,0.00,,,0.00,Wunderground v.1.15,2013-01-03 07:50:00,
2013-01-03 02:55:00,64.5,63.0,30.10,WSW,253,0.0,0.0,95,0.00,,,0.00,Wunderground v.1.15,2013-01-03 07:55:00,
2013-01-03 03:05:00,64.6,63.1,30.10,WSW,254,0.0,0.0,95,0.00,,,0.00,Wunderground v.1.15,2013-01-03 08:05:00,
2013-01-03 03:10:00,64.5,63.0,30.10,WSW,254,0.0,0.0,95,0.00,,,0.00,Wunderground v.1.15,2013-01-03 08:10:00,
2013-01-03 03:20:00,64.5,63.0,30.10,WSW,254,0.0,0.0,95,0.00,,,0.00,Wunderground v.1.15,2013-01-03 08:20:00,
2013-01-03 03:30:00,64.4,62.9,30.10,WSW,253,0.0,0.0,95,0.00,,,0.00,Wunderground v.1.15,2013-01-03 08:30:00,
2013-01-03 03:40:00,64.3,62.8,30.10,WSW,254,0.0,0.0,95,0.00,,,0.00,Wunderground v.1.15,2013-01-03 08:40:00,
2013-01-03 03:45:00,64.3,63.1,30.10,WSW,253,0.0,0.0,96,0.00,,,0.00,Wunderground v.1.15,2013-01-03 08:45:00,
2013-01-03 03:55:00,64.3,63.1,30.10,WSW,253,0.0,0.0,96,0.00,,,0.00,Wunderground v.1.15,2013-01-03 08:55:00,
2013-01-03 04:00:00,64.4,63.2,30.10,WSW,254,0.0,0.0,96,0.00,,,0.00,Wunderground v.1.15,2013-01-03 09:00:00,
2013-01-03 04:10:00,64.4,63.2,30.10,WSW,253,0.0,0.0,96,0.00,,,0.00,Wunderground v.1.15,2013-01-03 09:10:00,
2013-01-03 04:20:00,64.4,63.2,30.09,WSW,254,0.0,0.0,96,0.00,,,0.00,Wunderground v.1.15,2013-01-03 09:20:00,
2013-01-03 04:30:00,64.3,63.1,30.10,WSW,253,0.0,0.0,96,0.00,,,0.00,Wunderground v.1.15,2013-01-03 09:30:00,
2013-01-03 04:40:00,64.3,63.1,30.09,WSW,253,0.0,0.0,96,0.00,,,0.00,Wunderground v.1.15,2013-01-03 09:40:00,
2013-01-03 04:45:00,64.2,63.0,30.10,WSW,254,0.0,0.0,96,0.00,,,0.00,Wunderground v.1.15,2013-01-03 09:45:00,
2013-01-03 04:55:00,64.2,63.0,30.10,WSW,253,0.0,0.0,96,0.00,,,0.00,Wunderground v.1.15,2013-01-03 09:55:00,
2013-01-03 05:00:00,64.2,63.0,30.10,WSW,254,0.0,0.0,96,0.00,,,0.00,Wunderground v.1.15,2013-01-03 10:00:00,
2013-01-03 05:10:00,64.3,63.1,30.10,WSW,253,0.0,0.0,96,0.00,,,0.00,Wunderground v.1.15,2013-01-03 10:10:00,
2013-01-03 05:20:00,64.3,63.1,30.09,WSW,254,0.0,0.0,96,0.00,,,0.00,Wunderground v.1.15,2013-01-03 10:20:00,
2013-01-03 05:25:00,64.3,63.1,30.10,WSW,254,0.0,0.0,96,0.00,,,0.00,Wunderground v.1.15,2013-01-03 10:25:00,
2013-01-03 05:35:00,64.4,63.2,30.10,WSW,254,0.0,0.0,96,0.00,,,0.00,Wunderground v.1.15,2013-01-03 10:35:00,
2013-01-03 05:40:00,64.3,63.1,30.10,WSW,254,0.0,0.0,96,0.00,,,0.00,Wunderground v.1.15,2013-01-03 10:40:00,
2013-01-03 05:50:00,64.3,63.1,30.11,WSW,254,0.0,0.0,96,0.00,,,0.00,Wunderground v.1.15,2013-01-03 10:50:00,
2013-01-03 06:00:00,64.3,63.1,30.11,WSW,254,0.0,0.0,96,0.00,,,0.00,Wunderground v.1.15,2013-01-03 11:00:00,
2013-01-03 06:05:00,64.3,63.1,30.11,WSW,253,0.0,0.0,96,0.00,,,0.00,Wunderground v.1.15,2013-01-03 11:05:00,
2013-01-03 06:15:00,64.3,63.1,30.12,WSW,254,0.0,0.0,96,0.00,,,0.00,Wunderground v.1.15,2013-01-03 11:15:00,
2013-01-03 06:20:00,64.3,63.1,30.12,WSW,253,0.0,0.0,96,0.00,,,0.00,Wunderground v.1.15,2013-01-03 11:20:00,
2013-01-03 06:30:00,64.3,63.1,30.12,WSW,254,0.0,0.0,96,0.00,,,0.00,Wunderground v.1.15,2013-01-03 11:30:00,
2013-01-03 06:35:00,64.3,63.1,30.13,WSW,254,0.0,0.0,96,0.00,,,0.00,Wunderground v.1.15,2013-01-03 11:35:00,
2013-01-03 06:40:00,64.3,63.1,30.12,WSW,254,0.0,0.0,96,0.00,,,0.00,Wunderground v.1.15,2013-01-03 11:40:00,
2013-01-03 06:50:00,64.3,63.1,30.12,WSW,254,0.0,0.0,96,0.00,,,0.00,Wunderground v.1.15,2013-01-03 11:50:00,
2013-01-03 06:55:00,64.3,63.1,30.13,WSW,254,0.0,0.0,96,0.00,,,0.00,Wunderground v.1.15,2013-01-03 11:55:00,
2013-01-03 07:00:00,64.3,63.1,30.12,WSW,254,0.0,0.0,96,0.00,,,0.00,Wunderground v.1.15,2013-01-03 12:00:00,
2013-01-03 07:10:00,64.3,63.1,30.13,WSW,253,0.0,0.0,96,0.00,,,0.00,Wunderground v.1.15,2013-01-03 12:10:00,
2013-01-03 07:20:00,64.2,63.0,30.13,WSW,253,0.0,0.0,96,0.00,,,0.00,Wunderground v.1.15,2013-01-03 12:20:00,
2013-01-03 07:30:00,64.1,62.9,30.13,WSW,254,0.0,0.0,96,0.00,,,0.00,Wunderground v.1.15,2013-01-03 12:30:00,
2013-01-03 07:35:00,64.1,62.9,30.13,WSW,254,0.0,0.0,96,0.00,,,0.00,Wunderground v.1.15,2013-01-03 12:35:00,
2013-01-03 07:40:00,64.1,62.9,30.14,WSW,253,0.0,0.0,96,0.00,,,0.00,Wunderground v.1.15,2013-01-03 12:40:00,
2013-01-03 07:50:00,64.1,62.9,30.14,WSW,254,0.0,0.0,96,0.00,,,0.00,Wunderground v.1.15,2013-01-03 12:50:00,
2013-01-03 08:00:00,64.1,62.9,30.15,WSW,253,0.0,0.0,96,0.00,,,0.00,Wunderground v.1.15,2013-01-03 13:00:00,
2013-01-03 08:10:00,64.2,63.0,30.15,WSW,254,0.0,0.0,96,0.00,,,0.00,Wunderground v.1.15,2013-01-03 13:10:00,
2013-01-03 08:15:00,64.2,63.0,30.15,WSW,254,0.0,0.0,96,0.00,,,0.00,Wunderground v.1.15,2013-01-03 13:15:00,
2013-01-03 08:20:00,64.2,63.0,30.15,WSW,253,0.0,0.0,96,0.00,,,0.00,Wunderground v.1.15,2013-01-03 13:20:00,
2013-01-03 08:30:00,64.3,63.1,30.15,WSW,254,0.0,0.0,96,0.00,,,0.00,Wunderground v.1.15,2013-01-03 13:30:00,
2013-01-03 08:40:00,64.4,63.5,30.16,WSW,253,0.0,0.0,97,0.00,,,0.00,Wunderground v.1.15,2013-01-03 13:40:00,
2013-01-03 08:45:00,64.4,63.2,30.16,WSW,254,0.0,0.0,96,0.00,,,0.00,Wunderground v.1.15,2013-01-03 13:45:00,
2013-01-03 08:55:00,64.3,63.1,30.16,WSW,254,0.0,0.0,96,0.00,,,0.00,Wunderground v.1.15,2013-01-03 13:55:00,
2013-01-03 09:00:00,64.2,63.0,30.16,WSW,254,0.0,0.0,96,0.00,,,0.00,Wunderground v.1.15,2013-01-03 14:00:00,
2013-01-03 09:10:00,64.2,63.0,30.16,SE,130,0.0,0.0,96,0.00,,,0.00,Wunderground v.1.15,2013-01-03 14:10:00,
2013-01-03 09:20:00,64.0,62.8,30.16,SE,129,0.0,0.0,96,0.00,,,0.00,Wunderground v.1.15,2013-01-03 14:20:00,
2013-01-03 09:30:00,64.0,62.8,30.16,SE,129,0.0,0.0,96,0.00,,,0.00,Wunderground v.1.15,2013-01-03 14:30:00,
2013-01-03 09:40:00,64.1,62.9,30.16,SE,129,0.0,0.0,96,0.00,,,0.00,Wunderground v.1.15,2013-01-03 14:40:00,
2013-01-03 09:45:00,64.1,62.9,30.16,SE,130,0.0,0.0,96,0.00,,,0.00,Wunderground v.1.15,2013-01-03 14:45:00,
2013-01-03 09:50:00,64.0,62.8,30.16,SE,130,0.0,0.0,96,0.00,,,0.00,Wunderground v.1.15,2013-01-03 14:50:00,
2013-01-03 10:00:00,64.5,63.6,30.17,SE,129,0.0,0.0,97,0.00,,,0.00,Wunderground v.1.15,2013-01-03 15:00:00,
2013-01-03 10:05:00,64.8,63.9,30.17,SE,129,0.0,0.0,97,0.00,,,0.00,Wunderground v.1.15,2013-01-03 15:05:00,
2013-01-03 10:10:00,64.9,64.0,30.17,SE,129,0.0,0.0,97,0.00,,,0.00,Wunderground v.1.15,2013-01-03 15:10:00,
2013-01-03 10:20:00,64.8,63.6,30.17,SE,129,0.0,0.0,96,0.00,,,0.00,Wunderground v.1.15,2013-01-03 15:20:00,
2013-01-03 10:30:00,64.7,63.5,30.17,SE,129,0.0,0.0,96,0.00,,,0.00,Wunderground v.1.15,2013-01-03 15:30:00,
2013-01-03 10:35:00,64.9,63.7,30.17,SE,129,0.0,0.0,96,0.00,,,0.00,Wunderground v.1.15,2013-01-03 15:35:00,
2013-01-03 10:40:00,65.2,64.0,30.17,SE,130,0.0,0.0,96,0.00,,,0.00,Wunderground v.1.15,2013-01-03 15:40:00,
2013-01-03 10:50:00,65.1,63.9,30.18,SE,130,0.0,0.0,96,0.00,,,0.00,Wunderground v.1.15,2013-01-03 15:50:00,
2013-01-03 11:00:00,65.6,64.4,30.17,SE,129,0.0,0.0,96,0.00,,,0.00,Wunderground v.1.15,2013-01-03 16:00:00,
2013-01-03 11:10:00,66.0,64.5,30.17,SE,129,0.0,0.0,95,0.00,,,0.00,Wunderground v.1.15,2013-01-03 16:10:00,
2013-01-03 11:20:00,66.2,64.4,30.17,SE,129,0.0,0.0,94,0.00,,,0.00,Wunderground v.1.15,2013-01-03 16:20:00,
2013-01-03 11:30:00,66.6,64.8,30.17,SE,129,0.0,0.0,94,0.00,,,0.00,Wunderground v.1.15,2013-01-03 16:30:00,
2013-01-03 11:40:00,67.0,64.9,30.17,SE,129,0.0,0.0,93,0.00,,,0.00,Wunderground v.1.15,2013-01-03 16:40:00,
2013-01-03 11:50:00,67.3,64.9,30.16,SE,129,0.0,0.0,92,0.00,,,0.00,Wunderground v.1.15,2013-01-03 16:50:00,
2013-01-03 11:55:00,67.5,65.1,30.15,ESE,115,0.0,0.0,92,0.00,,,0.00,Wunderground v.1.15,2013-01-03 16:55:00,
2013-01-03 12:05:00,67.5,64.8,30.15,ENE,73,0.0,0.0,91,0.00,,,0.00,Wunderground v.1.15,2013-01-03 17:05:00,
2013-01-03 12:10:00,67.5,64.8,30.15,ENE,73,0.0,0.0,91,0.00,,,0.00,Wunderground v.1.15,2013-01-03 17:10:00,
2013-01-03 12:20:00,67.6,64.9,30.14,ESE,112,0.0,0.0,91,0.00,,,0.00,Wunderground v.1.15,2013-01-03 17:20:00,
2013-01-03 12:30:00,67.9,65.2,30.13,ESE,112,0.0,0.0,91,0.00,,,0.00,Wunderground v.1.15,2013-01-03 17:30:00,
2013-01-03 12:35:00,68.1,65.1,30.13,ESE,112,0.0,0.0,90,0.00,,,0.00,Wunderground v.1.15,2013-01-03 17:35:00,
2013-01-03 12:45:00,68.8,65.4,30.13,East,90,1.0,2.0,89,0.00,,,0.00,Wunderground v.1.15,2013-01-03 17:45:00,
2013-01-03 12:55:00,69.5,65.8,30.13,East,90,0.0,1.0,88,0.00,,,0.00,Wunderground v.1.15,2013-01-03 17:55:00,
2013-01-03 13:00:00,69.7,66.0,30.12,East,94,0.0,0.0,88,0.00,,,0.00,Wunderground v.1.15,2013-01-03 18:00:00,
2013-01-03 13:05:00,70.0,66.0,30.12,East,100,0.0,0.0,87,0.00,,,0.00,Wunderground v.1.15,2013-01-03 18:05:00,
2013-01-03 13:10:00,70.1,65.7,30.12,ESE,105,0.0,0.0,86,0.00,,,0.00,Wunderground v.1.15,2013-01-03 18:10:00,
2013-01-03 13:20:00,69.7,66.0,30.11,ESE,107,1.0,1.0,88,0.00,,,0.00,Wunderground v.1.15,2013-01-03 18:20:00,
2013-01-03 13:30:00,70.4,66.0,30.11,ESE,107,0.0,0.0,86,0.00,,,0.00,Wunderground v.1.15,2013-01-03 18:30:00,
2013-01-03 13:35:00,70.7,66.3,30.10,ESE,111,0.0,0.0,86,0.00,,,0.00,Wunderground v.1.15,2013-01-03 18:35:00,
2013-01-03 13:40:00,70.9,66.2,30.10,ESE,123,0.0,0.0,85,0.00,,,0.00,Wunderground v.1.15,2013-01-03 18:40:00,
2013-01-03 13:50:00,71.3,66.2,30.10,ESE,122,0.0,0.0,84,0.00,,,0.00,Wunderground v.1.15,2013-01-03 18:50:00,
2013-01-03 14:00:00,71.2,65.8,30.11,ESE,109,0.0,0.0,83,0.00,,,0.00,Wunderground v.1.15,2013-01-03 19:00:00,
2013-01-03 14:05:00,71.2,66.1,30.11,ESE,109,0.0,0.0,84,0.00,,,0.00,Wunderground v.1.15,2013-01-03 19:05:00,
2013-01-03 14:10:00,71.4,66.0,30.11,ESE,109,0.0,0.0,83,0.00,,,0.00,Wunderground v.1.15,2013-01-03 19:10:00,
2013-01-03 14:55:00,71.6,66.5,30.12,ESE,109,0.0,0.0,84,0.00,,,0.00,Wunderground v.1.15,2013-01-03 19:55:00,
2013-01-03 15:05:00,71.7,66.6,30.11,ESE,109,0.0,0.0,84,0.00,,,0.00,Wunderground v.1.15,2013-01-03 20:05:00,
2013-01-03 15:15:00,71.6,66.5,30.11,North,5,0.0,0.0,84,0.00,,,0.00,Wunderground v.1.15,2013-01-03 20:15:00,
2013-01-03 15:25:00,71.3,66.2,30.12,North,9,0.0,0.0,84,0.00,,,0.00,Wunderground v.1.15,2013-01-03 20:25:00,
2013-01-03 15:30:00,71.1,65.7,30.12,North,9,0.0,0.0,83,0.00,,,0.00,Wunderground v.1.15,2013-01-03 20:30:00,
2013-01-03 15:40:00,70.9,65.8,30.12,North,9,0.0,0.0,84,0.00,,,0.00,Wunderground v.1.15,2013-01-03 20:40:00,
2013-01-03 15:50:00,70.9,65.8,30.13,North,9,0.0,0.0,84,0.00,,,0.00,Wunderground v.1.15,2013-01-03 20:50:00,
2013-01-03 16:00:00,70.8,65.7,30.13,West,275,0.0,0.0,84,0.00,,,0.00,Wunderground v.1.15,2013-01-03 21:00:00,
2013-01-03 16:05:00,70.8,65.7,30.13,NW,321,0.0,5.0,84,0.00,,,0.00,Wunderground v.1.15,2013-01-03 21:05:00,
2013-01-03 16:15:00,70.2,65.1,30.13,North,355,0.0,1.0,84,0.00,,,0.00,Wunderground v.1.15,2013-01-03 21:15:00,
2013-01-03 16:20:00,70.0,65.3,30.14,North,355,0.0,0.0,85,0.00,,,0.00,Wunderground v.1.15,2013-01-03 21:20:00,
2013-01-03 16:30:00,69.3,64.6,30.14,NNW,344,0.0,1.0,85,0.00,,,0.00,Wunderground v.1.15,2013-01-03 21:30:00,
2013-01-03 16:40:00,68.7,64.0,30.14,NNE,17,1.0,1.0,85,0.00,,,0.00,Wunderground v.1.15,2013-01-03 21:40:00,
2013-01-03 16:50:00,68.3,63.9,30.14,WNW,282,0.0,0.0,86,0.00,,,0.00,Wunderground v.1.15,2013-01-03 21:50:00,
2013-01-03 16:55:00,68.2,63.9,30.14,West,262,0.0,0.0,86,0.00,,,0.00,Wunderground v.1.15,2013-01-03 21:55:00,
2013-01-03 17:05:00,67.9,63.9,30.15,NNE,21,0.0,3.0,87,0.00,,,0.00,Wunderground v.1.15,2013-01-03 22:05:00,
2013-01-03 17:10:00,67.7,63.7,30.15,NNW,340,0.0,0.0,87,0.00,,,0.00,Wunderground v.1.15,2013-01-03 22:10:00,
2013-01-03 17:20:00,67.4,63.4,30.15,North,360,0.0,0.0,87,0.00,,,0.00,Wunderground v.1.15,2013-01-03 22:20:00,
2013-01-03 17:30:00,67.0,63.3,30.15,South,169,0.0,0.0,88,0.00,,,0.00,Wunderground v.1.15,2013-01-03 22:30:00,
2013-01-03 17:35:00,66.8,63.1,30.15,North,360,0.0,0.0,88,0.00,,,0.00,Wunderground v.1.15,2013-01-03 22:35:00,
2013-01-03 17:45:00,66.3,62.6,30.16,NNE,28,0.0,0.0,88,0.00,,,0.00,Wunderground v.1.15,2013-01-03 22:45:00,
2013-01-03 17:50:00,66.2,62.9,30.16,East,94,0.0,0.0,89,0.00,,,0.00,Wunderground v.1.15,2013-01-03 22:50:00,
2013-01-03 18:00:00,65.7,62.4,30.16,ESE,114,0.0,0.0,89,0.00,,,0.00,Wunderground v.1.15,2013-01-03 23:00:00,
2013-01-03 18:10:00,65.3,62.3,30.17,NW,321,0.0,0.0,90,0.00,,,0.00,Wunderground v.1.15,2013-01-03 23:10:00,
2013-01-03 18:20:00,64.8,61.8,30.17,ENE,62,0.0,0.0,90,0.00,,,0.00,Wunderground v.1.15,2013-01-03 23:20:00,
2013-01-03 18:25:00,64.1,60.8,30.18,NNW,336,1.0,1.0,89,0.00,,,0.00,Wunderground v.1.15,2013-01-03 23:25:00,
2013-01-03 18:35:00,63.3,60.6,30.18,WNW,298,0.0,0.0,91,0.00,,,0.00,Wunderground v.1.15,2013-01-03 23:35:00,
2013-01-03 18:40:00,63.1,60.4,30.18,West,269,0.0,0.0,91,0.00,,,0.00,Wunderground v.1.15,2013-01-03 23:40:00,
2013-01-03 18:50:00,62.0,59.3,30.19,South,172,1.0,2.0,91,0.00,,,0.00,Wunderground v.1.15,2013-01-03 23:50:00,
2013-01-03 19:00:00,61.3,58.7,30.20,North,10,0.0,0.0,91,0.00,,,0.00,Wunderground v.1.15,2013-01-04 00:00:00,
2013-01-03 19:05:00,60.9,58.3,30.20,NE,55,1.0,1.0,91,0.00,,,0.00,Wunderground v.1.15,2013-01-04 00:05:00,
2013-01-03 19:15:00,60.7,58.1,30.21,North,355,0.0,2.0,91,0.00,,,0.00,Wunderground v.1.15,2013-01-04 00:15:00,
2013-01-03 19:20:00,60.5,57.9,30.21,West,271,0.0,0.0,91,0.00,,,0.00,Wunderground v.1.15,2013-01-04 00:20:00,
2013-01-03 19:30:00,60.3,57.4,30.21,West,281,0.0,0.0,90,0.00,,,0.00,Wunderground v.1.15,2013-01-04 00:30:00,
2013-01-03 19:35:00,60.1,57.2,30.21,East,100,0.0,0.0,90,0.00,,,0.00,Wunderground v.1.15,2013-01-04 00:35:00,
2013-01-03 19:45:00,60.0,57.4,30.22,North,350,0.0,0.0,91,0.00,,,0.01,Wunderground v.1.15,2013-01-04 00:45:00,
2013-01-03 19:50:00,59.9,57.3,30.22,NNE,26,0.0,0.0,91,0.00,,,0.01,Wunderground v.1.15,2013-01-04 00:50:00,
2013-01-03 20:00:00,59.6,57.0,30.23,NW,311,0.0,0.0,91,0.00,,,0.01,Wunderground v.1.15,2013-01-04 01:00:00,
2013-01-03 20:10:00,59.3,56.7,30.23,WSW,240,0.0,0.0,91,0.00,,,0.01,Wunderground v.1.15,2013-01-04 01:10:00,
2013-01-03 20:15:00,59.0,56.4,30.23,ENE,59,0.0,0.0,91,0.00,,,0.01,Wunderground v.1.15,2013-01-04 01:15:00,
2013-01-03 20:20:00,59.0,56.7,30.23,NNW,336,0.0,0.0,92,0.00,,,0.01,Wunderground v.1.15,2013-01-04 01:20:00,
2013-01-03 20:30:00,58.8,56.2,30.23,North,360,0.0,0.0,91,0.00,,,0.01,Wunderground v.1.15,2013-01-04 01:30:00,
2013-01-03 20:40:00,58.7,56.4,30.23,NNE,23,0.0,1.0,92,0.00,,,0.01,Wunderground v.1.15,2013-01-04 01:40:00,
2013-01-03 20:45:00,58.5,56.2,30.23,WNW,287,0.0,1.0,92,0.00,,,0.02,Wunderground v.1.15,2013-01-04 01:45:00,
2013-01-03 20:50:00,58.5,56.2,30.23,WNW,295,0.0,0.0,92,0.00,,,0.02,Wunderground v.1.15,2013-01-04 01:50:00,
2013-01-03 21:00:00,58.3,56.0,30.23,ESE,105,0.0,0.0,92,0.00,,,0.02,Wunderground v.1.15,2013-01-04 02:00:00,
2013-01-03 21:10:00,58.2,55.9,30.24,WNW,301,0.0,0.0,92,0.00,,,0.02,Wunderground v.1.15,2013-01-04 02:10:00,
2013-01-03 21:20:00,58.0,55.7,30.24,North,5,0.0,0.0,92,0.00,,,0.02,Wunderground v.1.15,2013-01-04 02:20:00,
2013-01-03 21:25:00,58.1,56.1,30.24,North,5,0.0,0.0,93,0.00,,,0.02,Wunderground v.1.15,2013-01-04 02:25:00,
2013-01-03 21:35:00,58.0,56.0,30.25,North,5,0.0,0.0,93,0.00,,,0.02,Wunderground v.1.15,2013-01-04 02:35:00,
2013-01-03 21:40:00,58.0,56.0,30.25,NNE,13,0.0,0.0,93,0.00,,,0.02,Wunderground v.1.15,2013-01-04 02:40:00,
2013-01-03 21:50:00,58.0,56.3,30.25,WNW,288,0.0,0.0,94,0.00,,,0.02,Wunderground v.1.15,2013-01-04 02:50:00,
2013-01-03 22:00:00,58.0,56.3,30.24,SSE,168,0.0,0.0,94,0.09,,,0.04,Wunderground v.1.15,2013-01-04 03:00:00,
2013-01-03 22:05:00,58.0,56.3,30.24,East,95,0.0,0.0,94,0.08,,,0.04,Wunderground v.1.15,2013-01-04 03:05:00,
2013-01-03 22:10:00,58.1,56.4,30.24,ENE,58,0.0,0.0,94,0.05,,,0.04,Wunderground v.1.15,2013-01-04 03:10:00,
2013-01-03 22:20:00,58.2,56.8,30.24,ENE,58,0.0,0.0,95,0.00,,,0.04,Wunderground v.1.15,2013-01-04 03:20:00,
2013-01-03 22:30:00,58.2,56.8,30.24,WNW,295,0.0,0.0,95,0.00,,,0.04,Wunderground v.1.15,2013-01-04 03:30:00,
2013-01-03 22:35:00,58.3,56.9,30.24,WNW,295,0.0,0.0,95,0.00,,,0.04,Wunderground v.1.15,2013-01-04 03:35:00,
2013-01-03 22:40:00,58.3,56.9,30.25,SW,217,0.0,0.0,95,0.00,,,0.04,Wunderground v.1.15,2013-01-04 03:40:00,
2013-01-03 22:50:00,58.3,56.9,30.24,NE,48,0.0,0.0,95,0.10,,,0.06,Wunderground v.1.15,2013-01-04 03:50:00,
2013-01-03 23:00:00,58.5,57.1,30.24,South,171,0.0,0.0,95,0.06,,,0.07,Wunderground v.1.15,2013-01-04 04:00:00,
2013-01-03 23:05:00,58.5,57.1,30.24,South,169,0.0,0.0,95,0.10,,,0.08,Wunderground v.1.15,2013-01-04 04:05:00,
2013-01-03 23:15:00,58.6,57.2,30.24,SE,144,0.0,0.0,95,0.05,,,0.08,Wunderground v.1.15,2013-01-04 04:15:00,
2013-01-03 23:20:00,58.6,57.5,30.24,SW,230,0.0,0.0,96,0.00,,,0.08,Wunderground v.1.15,2013-01-04 04:20:00,
2013-01-03 23:30:00,58.6,57.5,30.24,SSE,163,0.0,0.0,96,0.00,,,0.09,Wunderground v.1.15,2013-01-04 04:30:00,
2013-01-03 23:40:00,58.7,57.6,30.24,WNW,300,0.0,0.0,96,0.05,,,0.10,Wunderground v.1.15,2013-01-04 04:40:00,
2013-01-03 23:50:00,58.7,57.6,30.23,ENE,72,0.0,0.0,96,0.05,,,0.11,Wunderground v.1.15,2013-01-04 04:50:00,
2013-01-03 23:55:00,58.7,57.6,30.23,North,351,0.0,0.0,96,0.05,,,0.11,Wunderground v.1.15,2013-01-04 04:55:00,